Flag for Canada Weather past 2 weeks in Cornwall, Ontario, Canada

Now
39 °F

Chilly.


Feels Like: 39 °F
Forecast: 33 / 53 °F
Wind: 1 mph from West

Location: St Anicet

Current Time: Apr 26, 2015 at 6:03:18 AM

Latest Report: Apr 26, 2015 at 5:00 AM


Visibility: N/A

Pressure: 29.74 "Hg

Humidity: 80%

Dew point: 34 °F

Location of CornwallLocation

Historic Weather in Cornwall — Graph

°F

Cornwall temperature yesterday

Maximum temperature yesterday: 52 °F (at 5:00 PM)
Minimum temperature yesterday: 32 °F (at 6:00 AM)
Average temperature yesterday: 41 °F

Past Weeks' High & Low Weather Summary

 TemperatureHumidityPressure
High78 °F (Apr 13, 5:00 PM)100% (Apr 16, 6:00 AM)30.47 "Hg (Apr 16, 6:00 AM)
Low26 °F (Apr 16, 6:00 AM)20% (Apr 15, 5:00 PM)29.50 "Hg (Apr 21, 6:00 AM)
Average47 °F62%29.94 "Hg
* Reported Apr 11 5:00 AM — Apr 26 5:00 AM, Cornwall, Weather by CustomWeather, © 2015

Note: Actual official high and low records may vary slightly from our data, if they occured in-between our weather recording intervals... More about our weather records

Advertising

Cornwall weather history for previous 24 hours

 ConditionsComfort  
Time TempWeatherWind HumidityBarometerVisibility
5:00 AM
Sun, Apr 26
39 °FChilly.1 mph80%29.74 "HgN/A
4:00 AM38 °FChilly.2 mph84%29.74 "HgN/A
3:00 AM40 °FChilly.3 mph80%29.75 "HgN/A
2:00 AM40 °FQuite cool.2 mph76%29.76 "HgN/A
1:00 AM43 °FQuite cool.3 mph64%29.76 "HgN/A
12:00 AM45 °FCool.3 mph63%29.76 "HgN/A
11:00 PM
Sat, Apr 25
46 °FCool.3 mph64%29.76 "HgN/A
10:00 PM46 °FCool.3 mph70%29.76 "HgN/A
9:00 PM47 °FCool.7 mph63%29.76 "HgN/A
8:00 PM48 °FCool.6 mph61%29.75 "HgN/A
7:00 PM49 °FCool.8 mph56%29.75 "HgN/A
6:00 PM50 °FCool.10 mph53%29.75 "HgN/A
5:00 PM52 °FCool.12 mph50%29.75 "HgN/A
4:00 PM50 °FCool.13 mph51%29.76 "HgN/A
3:00 PM50 °FCool.14 mph49%29.79 "HgN/A
2:00 PM47 °FCool.15 mph56%29.81 "HgN/A
1:00 PM44 °FQuite cool.15 mph60%29.83 "HgN/A
12:00 PM40 °FQuite cool.14 mph62%29.85 "HgN/A
11:00 AM38 °FChilly.13 mph65%29.86 "HgN/A
10:00 AM37 °FChilly.13 mph66%29.87 "HgN/A
9:00 AM34 °FChilly.12 mph70%29.87 "HgN/A
8:00 AM33 °FChilly.8 mph69%29.88 "HgN/A
7:00 AM33 °FChilly.8 mph70%29.88 "HgN/A
6:00 AM32 °FChilly.8 mph75%29.88 "HgN/A
Weather by CustomWeather, © 2015

See weather overviewHow to use our weather pages